TimeCDT,TemperatureF,Dew PointF,Humidity,Sea Level PressureIn,VisibilityMPH,Wind Direction,Wind SpeedMPH,Gust SpeedMPH,PrecipitationIn,Events,Conditions,WindDirDegrees,DateUTC
12:53 AM,80.1,61.0,52,29.80,10.0,South,16.1,-,N/A,,Clear,170,2013-06-25 05:53:00
1:53 AM,80.1,62.1,54,29.80,10.0,SSE,12.7,-,N/A,,Clear,160,2013-06-25 06:53:00
2:53 AM,80.1,59.0,48,29.79,10.0,South,15.0,23.0,N/A,,Clear,170,2013-06-25 07:53:00
3:53 AM,79.0,57.9,48,29.79,10.0,South,18.4,23.0,N/A,,Clear,170,2013-06-25 08:53:00
4:53 AM,78.1,59.0,52,29.79,10.0,South,16.1,-,N/A,,Clear,170,2013-06-25 09:53:00
5:53 AM,77.0,62.1,60,29.80,10.0,South,16.1,-,N/A,,Clear,180,2013-06-25 10:53:00
6:53 AM,75.9,64.0,67,29.81,10.0,South,16.1,26.5,N/A,,Clear,180,2013-06-25 11:53:00
7:53 AM,75.9,64.9,69,29.83,10.0,South,16.1,23.0,N/A,,Clear,180,2013-06-25 12:53:00
8:53 AM,78.1,66.0,66,29.83,10.0,South,18.4,-,N/A,,Clear,180,2013-06-25 13:53:00
9:53 AM,80.1,66.0,62,29.84,10.0,South,15.0,-,N/A,,Clear,180,2013-06-25 14:53:00
10:53 AM,84.9,66.0,53,29.83,10.0,South,15.0,20.7,N/A,,Clear,190,2013-06-25 15:53:00
11:53 AM,90.0,66.0,45,29.82,10.0,South,15.0,-,N/A,,Clear,180,2013-06-25 16:53:00
12:53 PM,91.0,64.0,41,29.81,10.0,South,8.1,18.4,N/A,,Clear,190,2013-06-25 17:53:00
1:53 PM,96.1,61.0,31,29.78,10.0,Variable,4.6,-,N/A,,Clear,0,2013-06-25 18:53:00
2:53 PM,98.1,57.9,26,29.76,10.0,SSW,8.1,-,N/A,,Clear,210,2013-06-25 19:53:00
3:53 PM,100.9,55.9,22,29.74,10.0,South,10.4,-,N/A,,Clear,180,2013-06-25 20:53:00
4:53 PM,100.9,54.0,21,29.72,10.0,Variable,3.5,-,N/A,,Partly Cloudy,0,2013-06-25 21:53:00
5:53 PM,102.0,53.1,19,29.70,10.0,SE,11.5,19.6,N/A,,Partly Cloudy,130,2013-06-25 22:53:00
6:53 PM,102.0,53.1,19,29.68,10.0,South,12.7,-,N/A,,Clear,170,2013-06-25 23:53:00
7:17 PM,93.2,59.0,32,29.87,5.0,SSW,24.2,38.0,N/A,Thunderstorm,Haze,200,2013-06-26 00:17:00
7:28 PM,89.6,60.8,38,29.87,1.8,South,27.6,42.6,N/A,Thunderstorm,Unknown,190,2013-06-26 00:28:00
7:37 PM,89.6,55.4,31,29.86,3.0,SSW,24.2,34.5,N/A,Thunderstorm,Haze,200,2013-06-26 00:37:00
7:53 PM,89.1,61.0,39,29.71,10.0,South,17.3,24.2,N/A,Thunderstorm,Partly Cloudy,190,2013-06-26 00:53:00
8:04 PM,89.6,60.8,38,29.87,10.0,South,17.3,26.5,N/A,,Clear,190,2013-06-26 01:04:00
8:53 PM,91.0,64.0,41,29.70,10.0,South,17.3,27.6,N/A,,Clear,180,2013-06-26 01:53:00
9:53 PM,89.1,63.0,42,29.77,10.0,SSE,21.9,27.6,N/A,,Clear,160,2013-06-26 02:53:00
10:53 PM,87.1,64.0,46,29.78,10.0,SSE,20.7,28.8,N/A,,Clear,150,2013-06-26 03:53:00
11:53 PM,84.9,64.0,49,29.77,10.0,SSE,18.4,26.5,N/A,,Clear,160,2013-06-26 04:53:00